TVF42VD LFPO-LGSR

Flight info

Callsign TVF42VD
Flight time 3h 12m
Altitude 37000
Route OKASI DCT OKEKO DCT MOU DCT MADIV DCT MOKIP DCT TUFTA DCT GEVEA DCT ORSUD DCT BIBAN DCT GIBLO DCT NISIL DCT NIKOL DCT AIOSA/N0460F390 DCT PAPIZ DCT DIMIS UL604 TRL UM601 PEXAN
Aircraft B738/M-SDE2E3FGHIRWXY/LB1

Departure

Time 2026-04-24 12:15
Airport Paris-Orly Airport (LFPO)

Arrival

Time 2026-04-24 15:27
Airport Santorini International Airport (LGSR)
Time Latitude Longitude Altitude Speed Heading
2026-04-24 11:52 48.72427 2.36633 285 ft 0 kts 143°
2026-04-24 12:06 48.72438 2.36621 285 ft 2 kts 143°
2026-04-24 12:07 48.72450 2.36608 285 ft 2 kts 143°
2026-04-24 12:07 48.72462 2.36594 285 ft 2 kts 143°
2026-04-24 12:07 48.72476 2.36587 285 ft 2 kts 189°
2026-04-24 12:07 48.72489 2.36597 285 ft 2 kts 231°
2026-04-24 12:08 48.72493 2.36608 285 ft 1 kts 255°
2026-04-24 12:08 48.72494 2.36617 285 ft 0 kts 255°
2026-04-24 12:10 48.72493 2.36609 285 ft 3 kts 255°
2026-04-24 12:10 48.72482 2.36550 285 ft 8 kts 254°
2026-04-24 12:10 48.72461 2.36434 283 ft 13 kts 253°
2026-04-24 12:11 48.72411 2.36169 281 ft 11 kts 254°
2026-04-24 12:11 48.72389 2.36050 281 ft 13 kts 254°
2026-04-24 12:11 48.72360 2.35897 280 ft 15 kts 254°
2026-04-24 12:11 48.72331 2.35736 278 ft 15 kts 254°
2026-04-24 12:12 48.72279 2.35610 278 ft 14 kts 205°
2026-04-24 12:12 48.72186 2.35616 279 ft 13 kts 167°
2026-04-24 12:12 48.72080 2.35673 278 ft 17 kts 147°
2026-04-24 12:12 48.72011 2.35801 281 ft 14 kts 119°
2026-04-24 12:13 48.71966 2.35922 281 ft 12 kts 112°
2026-04-24 12:13 48.71968 2.36012 281 ft 0 kts 75°
2026-04-24 12:13 48.71969 2.36012 281 ft 0 kts 75°
2026-04-24 12:14 48.71985 2.36102 281 ft 35 kts 74°
2026-04-24 12:14 48.72115 2.36799 284 ft 100 kts 73°
2026-04-24 12:14 48.72355 2.38112 288 ft 155 kts 74°
2026-04-24 12:14 48.72673 2.39846 616 ft 173 kts 72°
2026-04-24 12:15 48.72989 2.41567 1218 ft 174 kts 72°
2026-04-24 12:15 48.73318 2.43341 1862 ft 179 kts 72°
2026-04-24 12:15 48.73645 2.45164 2369 ft 183 kts 73°
2026-04-24 12:15 48.73987 2.47077 2735 ft 195 kts 74°
2026-04-24 12:16 48.74211 2.49198 3033 ft 215 kts 85°
2026-04-24 12:16 48.74244 2.51496 3447 ft 228 kts 88°
2026-04-24 12:16 48.74274 2.53974 3962 ft 238 kts 86°
2026-04-24 12:16 48.74297 2.56514 4377 ft 252 kts 94°
2026-04-24 12:17 48.73702 2.59023 4961 ft 261 kts 124°
2026-04-24 12:17 48.72327 2.60837 5620 ft 268 kts 150°
2026-04-24 12:17 48.70553 2.61705 6320 ft 272 kts 168°
2026-04-24 12:17 48.68676 2.62073 6933 ft 277 kts 171°
2026-04-24 12:18 48.66749 2.62364 7574 ft 280 kts 172°
2026-04-24 12:18 48.64803 2.62544 8192 ft 285 kts 179°
2026-04-24 12:18 48.62807 2.62542 8822 ft 287 kts 174°
2026-04-24 12:18 48.60833 2.62803 9424 ft 289 kts 169°
2026-04-24 12:19 48.58864 2.63350 10040 ft 291 kts 165°
2026-04-24 12:19 48.56871 2.64016 10571 ft 297 kts 165°
2026-04-24 12:19 48.54813 2.64690 10849 ft 313 kts 166°
2026-04-24 12:19 48.52627 2.65358 11142 ft 328 kts 167°
2026-04-24 12:20 48.50338 2.66023 11433 ft 343 kts 168°
2026-04-24 12:20 48.47948 2.66700 11680 ft 358 kts 168°
2026-04-24 12:20 48.45423 2.67408 11941 ft 374 kts 168°
2026-04-24 12:20 48.42847 2.68129 12186 ft 388 kts 168°
2026-04-24 12:21 48.40165 2.68880 12659 ft 396 kts 168°
2026-04-24 12:21 48.37437 2.69643 13231 ft 401 kts 168°
2026-04-24 12:21 48.34711 2.70406 13828 ft 405 kts 168°
2026-04-24 12:21 48.31912 2.71189 14538 ft 406 kts 168°
2026-04-24 12:22 48.29145 2.71963 15200 ft 410 kts 168°
2026-04-24 12:22 48.26353 2.72745 15879 ft 412 kts 168°
2026-04-24 12:22 48.23543 2.73530 16571 ft 414 kts 168°
2026-04-24 12:22 48.20668 2.74335 17223 ft 417 kts 168°
2026-04-24 12:23 48.17841 2.75124 17851 ft 419 kts 168°
2026-04-24 12:23 48.14970 2.75926 18476 ft 422 kts 168°
2026-04-24 12:23 48.12095 2.76735 19105 ft 424 kts 167°
2026-04-24 12:23 48.09196 2.77705 19689 ft 426 kts 164°
2026-04-24 12:24 48.06403 2.78995 20313 ft 426 kts 159°
2026-04-24 12:24 48.03632 2.80561 20879 ft 428 kts 157°
2026-04-24 12:24 48.00877 2.82269 21457 ft 430 kts 156°
2026-04-24 12:24 47.98126 2.84045 21964 ft 433 kts 155°
2026-04-24 12:25 47.95392 2.85832 22507 ft 435 kts 155°
2026-04-24 12:25 47.92588 2.87662 23054 ft 437 kts 155°
2026-04-24 12:25 47.89811 2.89462 23574 ft 439 kts 155°
2026-04-24 12:25 47.86988 2.91279 24074 ft 442 kts 155°
2026-04-24 12:26 47.84190 2.93068 24549 ft 445 kts 156°
2026-04-24 12:26 47.81339 2.94881 25008 ft 448 kts 156°
2026-04-24 12:26 47.78486 2.96689 25500 ft 449 kts 156°
2026-04-24 12:26 47.75574 2.98527 25934 ft 452 kts 156°
2026-04-24 12:27 47.72700 3.00337 26609 ft 448 kts 156°
2026-04-24 12:27 47.70010 3.02027 27284 ft 444 kts 156°
2026-04-24 12:27 47.67165 3.03813 27885 ft 441 kts 156°
2026-04-24 12:27 47.64384 3.05556 28464 ft 439 kts 156°
2026-04-24 12:28 47.61573 3.07316 29023 ft 436 kts 156°
2026-04-24 12:28 47.58799 3.09052 29503 ft 435 kts 156°
2026-04-24 12:28 47.56012 3.10794 29974 ft 434 kts 156°
2026-04-24 12:28 47.53233 3.12530 30376 ft 434 kts 156°
2026-04-24 12:29 47.50467 3.14255 30725 ft 434 kts 156°
2026-04-24 12:29 47.47697 3.15979 31115 ft 434 kts 156°
2026-04-24 12:29 47.44913 3.17710 31498 ft 433 kts 156°
2026-04-24 12:29 47.43674 3.18479 31653 ft 433 kts 156°
2026-04-24 12:30 47.42098 3.19458 31845 ft 434 kts 156°
2026-04-24 12:30 47.39358 3.21158 32164 ft 434 kts 156°
2026-04-24 12:30 47.36570 3.22885 32469 ft 435 kts 156°
2026-04-24 12:30 47.33771 3.24616 32798 ft 435 kts 156°
2026-04-24 12:31 47.31007 3.26325 33054 ft 436 kts 156°
2026-04-24 12:31 47.28187 3.28066 33329 ft 437 kts 156°
2026-04-24 12:31 47.25410 3.29780 33662 ft 435 kts 156°
2026-04-24 12:31 47.22634 3.31490 33951 ft 435 kts 156°
2026-04-24 12:32 47.19836 3.33213 34240 ft 435 kts 156°
2026-04-24 12:32 47.17054 3.34923 34619 ft 433 kts 156°
2026-04-24 12:32 47.14304 3.36612 34831 ft 435 kts 156°
2026-04-24 12:32 47.11504 3.38330 35027 ft 436 kts 156°
2026-04-24 12:33 47.08707 3.40043 35360 ft 435 kts 156°
2026-04-24 12:33 47.05944 3.41733 35637 ft 434 kts 156°
2026-04-24 12:33 47.03174 3.43426 35932 ft 433 kts 156°
2026-04-24 12:33 47.00372 3.45136 36204 ft 432 kts 156°
2026-04-24 12:34 46.97622 3.46813 36416 ft 432 kts 156°
2026-04-24 12:34 46.94875 3.48486 36688 ft 431 kts 156°
2026-04-24 12:34 46.92099 3.50176 36879 ft 431 kts 156°
2026-04-24 12:34 46.89345 3.51850 37054 ft 431 kts 156°
2026-04-24 12:35 46.86600 3.53517 37141 ft 433 kts 157°
2026-04-24 12:35 46.81033 3.56892 37128 ft 432 kts 157°
2026-04-24 12:36 46.75718 3.60898 37128 ft 432 kts 144°
2026-04-24 12:36 46.72096 3.66039 37128 ft 437 kts 129°
2026-04-24 12:37 46.69022 3.73608 37131 ft 438 kts 115°
2026-04-24 12:37 46.67162 3.82123 37131 ft 442 kts 107°
2026-04-24 12:38 46.65750 3.90852 37137 ft 443 kts 105°
2026-04-24 12:38 46.64370 3.99569 37138 ft 444 kts 106°
2026-04-24 12:39 46.61559 4.16258 37137 ft 445 kts 107°
2026-04-24 12:40 46.60033 4.25003 37135 ft 444 kts 107°
2026-04-24 12:40 46.58521 4.33623 37139 ft 443 kts 107°
2026-04-24 12:41 46.56995 4.42256 37133 ft 441 kts 107°
2026-04-24 12:41 46.55581 4.50220 37126 ft 442 kts 107°
2026-04-24 12:42 46.54042 4.58846 37129 ft 440 kts 107°
2026-04-24 12:42 46.52508 4.67404 37137 ft 438 kts 108°
2026-04-24 12:43 46.50966 4.75962 37139 ft 439 kts 108°
2026-04-24 12:43 46.49468 4.84240 37146 ft 438 kts 108°
2026-04-24 12:44 46.47951 4.92580 37138 ft 439 kts 108°
2026-04-24 12:44 46.46399 5.01083 37142 ft 437 kts 108°
2026-04-24 12:45 46.44846 5.09547 37136 ft 437 kts 107°
2026-04-24 12:45 46.43279 5.18057 37135 ft 437 kts 107°
2026-04-24 12:46 46.41713 5.26537 37133 ft 436 kts 107°
2026-04-24 12:46 46.40137 5.35030 37141 ft 436 kts 107°
2026-04-24 12:47 46.38564 5.43469 37146 ft 436 kts 107°
2026-04-24 12:47 46.36980 5.51971 37145 ft 436 kts 107°
2026-04-24 12:48 46.35405 5.60416 37154 ft 436 kts 107°
2026-04-24 12:48 46.33818 5.68877 37157 ft 436 kts 108°
2026-04-24 12:49 46.32246 5.77223 37160 ft 437 kts 108°
2026-04-24 12:49 46.30631 5.85758 37162 ft 436 kts 108°
2026-04-24 12:50 46.29036 5.94151 37164 ft 435 kts 108°
2026-04-24 12:50 46.27437 6.02524 37157 ft 434 kts 107°
2026-04-24 12:51 46.25843 6.10839 37157 ft 434 kts 107°
2026-04-24 12:51 46.23939 6.19175 37155 ft 433 kts 112°
2026-04-24 12:52 46.21684 6.27218 37161 ft 433 kts 114°
2026-04-24 12:52 46.19372 6.35231 37182 ft 433 kts 114°
2026-04-24 12:53 46.17081 6.43242 37194 ft 433 kts 113°
2026-04-24 12:53 46.14816 6.51234 37211 ft 433 kts 113°
2026-04-24 12:54 46.12540 6.59291 37226 ft 434 kts 113°
2026-04-24 12:54 46.10288 6.67267 37236 ft 433 kts 113°
2026-04-24 12:55 46.08015 6.75302 37232 ft 433 kts 113°
2026-04-24 12:55 46.05753 6.83273 37244 ft 432 kts 113°
2026-04-24 12:56 46.03547 6.91021 37245 ft 433 kts 113°
2026-04-24 12:56 46.01253 6.99054 37241 ft 435 kts 113°
2026-04-24 12:57 45.98994 7.06938 37247 ft 435 kts 113°
2026-04-24 12:57 45.96745 7.14915 37252 ft 433 kts 110°
2026-04-24 12:58 45.95100 7.23254 37256 ft 434 kts 102°
2026-04-24 12:58 45.94016 7.31716 37254 ft 433 kts 100°
2026-04-24 12:59 45.93052 7.40218 37249 ft 434 kts 99°
2026-04-24 12:59 45.91869 7.48681 37243 ft 434 kts 105°
2026-04-24 13:00 45.90100 7.56947 37253 ft 434 kts 108°
2026-04-24 13:00 45.88221 7.65014 37240 ft 434 kts 109°
2026-04-24 13:01 45.86316 7.73212 37245 ft 434 kts 108°
2026-04-24 13:01 45.84431 7.81427 37254 ft 434 kts 108°
2026-04-24 13:02 45.82558 7.89640 37243 ft 435 kts 108°
2026-04-24 13:02 45.81205 7.95584 37251 ft 434 kts 108°
2026-04-24 13:03 45.79340 8.03768 37246 ft 435 kts 108°
2026-04-24 13:03 45.77576 8.11481 37204 ft 434 kts 107°
2026-04-24 13:04 45.75774 8.19340 37166 ft 436 kts 107°
2026-04-24 13:04 45.73900 8.27479 37116 ft 436 kts 107°
2026-04-24 13:05 45.72002 8.35690 37097 ft 434 kts 107°
2026-04-24 13:05 45.70096 8.43905 37090 ft 434 kts 107°
2026-04-24 13:06 45.68199 8.52051 37083 ft 433 kts 107°
2026-04-24 13:06 45.66353 8.59955 37083 ft 434 kts 107°
2026-04-24 13:07 45.64432 8.68143 37079 ft 435 kts 108°
2026-04-24 13:07 45.62597 8.75939 37077 ft 435 kts 107°
2026-04-24 13:08 45.60676 8.84070 37075 ft 435 kts 107°
2026-04-24 13:08 45.58763 8.92135 37076 ft 434 kts 107°
2026-04-24 13:09 45.55871 9.04275 37073 ft 435 kts 107°
2026-04-24 13:09 45.53923 9.12413 37069 ft 435 kts 107°
2026-04-24 13:10 45.51969 9.20550 37066 ft 435 kts 107°
2026-04-24 13:10 45.50097 9.28314 37065 ft 434 kts 107°
2026-04-24 13:11 45.48130 9.36451 37062 ft 435 kts 107°
2026-04-24 13:11 45.46163 9.44549 37066 ft 434 kts 107°
2026-04-24 13:12 45.44202 9.52597 37065 ft 434 kts 107°
2026-04-24 13:12 45.42223 9.60689 37062 ft 435 kts 107°
2026-04-24 13:13 45.40310 9.68485 37060 ft 434 kts 107°
2026-04-24 13:13 45.38314 9.76587 37058 ft 434 kts 107°
2026-04-24 13:14 45.36404 9.84316 37058 ft 434 kts 107°
2026-04-24 13:14 45.34336 9.92397 37057 ft 434 kts 108°
2026-04-24 13:15 45.32225 10.00084 37059 ft 436 kts 109°
2026-04-24 13:15 45.29919 10.08357 37057 ft 435 kts 109°
2026-04-24 13:16 45.27713 10.16278 37057 ft 434 kts 109°
2026-04-24 13:16 45.25504 10.24222 37062 ft 434 kts 109°
2026-04-24 13:17 45.23306 10.32128 37059 ft 433 kts 108°
2026-04-24 13:17 45.21099 10.40051 37057 ft 434 kts 108°
2026-04-24 13:18 45.18883 10.47985 37051 ft 435 kts 108°
2026-04-24 13:18 45.16657 10.55927 37051 ft 434 kts 108°
2026-04-24 13:19 45.14439 10.63818 37051 ft 433 kts 108°
2026-04-24 13:19 45.12313 10.71356 37051 ft 433 kts 109°
2026-04-24 13:20 45.10086 10.79228 37051 ft 434 kts 109°
2026-04-24 13:20 45.07848 10.87118 37052 ft 433 kts 109°
2026-04-24 13:21 45.05638 10.94881 37052 ft 433 kts 109°
2026-04-24 13:21 45.03389 11.02756 37048 ft 433 kts 109°
2026-04-24 13:22 45.01135 11.10622 37045 ft 433 kts 109°
2026-04-24 13:22 44.98866 11.18515 37049 ft 433 kts 108°
2026-04-24 13:23 44.96588 11.26373 37050 ft 432 kts 108°
2026-04-24 13:23 44.94300 11.34169 37050 ft 432 kts 109°
2026-04-24 13:24 44.91996 11.41990 37052 ft 433 kts 109°
2026-04-24 13:24 44.89828 11.49329 37051 ft 433 kts 109°
2026-04-24 13:25 44.87542 11.57047 37050 ft 432 kts 108°
2026-04-24 13:25 44.85233 11.64828 37051 ft 432 kts 108°
2026-04-24 13:26 44.83021 11.72258 37052 ft 432 kts 109°
2026-04-24 13:26 44.80699 11.80037 37050 ft 432 kts 109°
2026-04-24 13:27 44.78443 11.87571 37051 ft 433 kts 109°
2026-04-24 13:27 44.76102 11.95360 37051 ft 432 kts 109°
2026-04-24 13:28 44.73759 12.03136 37051 ft 431 kts 109°
2026-04-24 13:28 44.71433 12.10830 37052 ft 431 kts 109°
2026-04-24 13:29 44.69089 12.18565 37055 ft 432 kts 109°
2026-04-24 13:29 44.66740 12.26291 37056 ft 432 kts 109°
2026-04-24 13:30 44.64385 12.34015 37055 ft 432 kts 109°
2026-04-24 13:30 44.62016 12.41755 37060 ft 431 kts 109°
2026-04-24 13:31 44.59654 12.49455 37058 ft 431 kts 109°
2026-04-24 13:31 44.57288 12.57140 37064 ft 431 kts 108°
2026-04-24 13:32 44.54918 12.64820 37063 ft 430 kts 108°
2026-04-24 13:32 44.52604 12.72296 37065 ft 431 kts 109°
2026-04-24 13:33 44.50215 12.79988 37066 ft 431 kts 109°
2026-04-24 13:33 44.47831 12.87643 37067 ft 431 kts 109°
2026-04-24 13:34 44.45435 12.95313 37070 ft 430 kts 109°
2026-04-24 13:34 44.43050 13.02923 37070 ft 431 kts 109°
2026-04-24 13:35 44.40649 13.10568 37068 ft 430 kts 109°
2026-04-24 13:35 44.38242 13.18202 37072 ft 429 kts 109°
2026-04-24 13:36 44.35829 13.25837 37071 ft 431 kts 109°
2026-04-24 13:36 44.33429 13.33410 37070 ft 430 kts 109°
2026-04-24 13:37 44.31003 13.41044 37070 ft 431 kts 109°
2026-04-24 13:37 44.28583 13.48632 37076 ft 430 kts 109°
2026-04-24 13:38 44.26144 13.56261 37076 ft 431 kts 109°
2026-04-24 13:38 44.23681 13.63842 37075 ft 431 kts 110°
2026-04-24 13:39 44.20780 13.70865 37081 ft 439 kts 121°
2026-04-24 13:39 44.16947 13.77584 37082 ft 442 kts 126°
2026-04-24 13:40 44.12953 13.84039 37088 ft 441 kts 126°
2026-04-24 13:40 44.08961 13.90476 37084 ft 440 kts 126°
2026-04-24 13:41 44.04969 13.96953 37085 ft 441 kts 125°
2026-04-24 13:41 44.01001 14.03412 37090 ft 442 kts 125°
2026-04-24 13:42 43.97033 14.09875 37093 ft 441 kts 125°
2026-04-24 13:42 43.93048 14.16358 37092 ft 441 kts 125°
2026-04-24 13:43 43.89093 14.22777 37079 ft 439 kts 126°
2026-04-24 13:43 43.85134 14.29194 37078 ft 439 kts 125°
2026-04-24 13:44 43.81155 14.35629 37090 ft 441 kts 125°
2026-04-24 13:44 43.77156 14.42083 37078 ft 441 kts 126°
2026-04-24 13:45 43.73175 14.48489 37085 ft 440 kts 126°
2026-04-24 13:45 43.69191 14.54889 37083 ft 440 kts 126°
2026-04-24 13:46 43.65189 14.61300 37084 ft 440 kts 126°
2026-04-24 13:46 43.61199 14.67682 37080 ft 441 kts 126°
2026-04-24 13:47 43.57182 14.74093 37088 ft 443 kts 126°
2026-04-24 13:47 43.53144 14.80519 37080 ft 441 kts 126°
2026-04-24 13:48 43.49156 14.86849 37085 ft 440 kts 127°
2026-04-24 13:48 43.45136 14.93220 37081 ft 440 kts 126°
2026-04-24 13:49 43.41140 14.99540 36721 ft 441 kts 126°
2026-04-24 13:49 43.39129 15.02713 36989 ft 437 kts 126°
2026-04-24 13:49 43.37133 15.05860 37070 ft 439 kts 126°
2026-04-24 13:50 43.33129 15.12169 37080 ft 445 kts 126°
2026-04-24 13:50 43.29067 15.18553 37074 ft 443 kts 127°
2026-04-24 13:51 43.25024 15.24887 37076 ft 441 kts 127°
2026-04-24 13:51 43.20996 15.31185 37071 ft 442 kts 127°
2026-04-24 13:52 43.16941 15.37514 37081 ft 443 kts 127°
2026-04-24 13:52 43.12868 15.43855 37074 ft 443 kts 127°
2026-04-24 13:53 43.08810 15.50159 37070 ft 442 kts 127°
2026-04-24 13:53 43.04781 15.56407 37068 ft 442 kts 127°
2026-04-24 13:54 43.00720 15.62691 37065 ft 440 kts 127°
2026-04-24 13:54 42.96681 15.68925 37066 ft 441 kts 127°
2026-04-24 13:55 42.92594 15.75221 37071 ft 442 kts 127°
2026-04-24 13:55 42.88542 15.81449 37060 ft 441 kts 127°
2026-04-24 13:56 42.84467 15.87699 37057 ft 443 kts 127°
2026-04-24 13:56 42.80391 15.93937 37064 ft 441 kts 127°
2026-04-24 13:57 42.76335 16.00128 37064 ft 439 kts 127°
2026-04-24 13:57 42.72271 16.06321 37064 ft 440 kts 127°
2026-04-24 13:58 42.68185 16.12536 37054 ft 441 kts 127°
2026-04-24 13:58 42.64114 16.18712 37069 ft 441 kts 127°
2026-04-24 13:59 42.60016 16.24916 37064 ft 441 kts 127°
2026-04-24 13:59 42.55924 16.31100 37064 ft 442 kts 127°
2026-04-24 14:00 42.51833 16.37265 37066 ft 441 kts 128°
2026-04-24 14:00 42.47748 16.43412 37061 ft 441 kts 127°
2026-04-24 14:01 42.43660 16.49549 37062 ft 441 kts 127°
2026-04-24 14:01 42.39571 16.55675 37060 ft 441 kts 127°
2026-04-24 14:02 42.35463 16.61816 37057 ft 440 kts 127°
2026-04-24 14:02 42.31363 16.67931 37053 ft 441 kts 128°
2026-04-24 14:03 42.27252 16.74051 37057 ft 441 kts 128°
2026-04-24 14:03 42.23136 16.80166 37057 ft 441 kts 128°
2026-04-24 14:04 42.19033 16.86246 37049 ft 439 kts 128°
2026-04-24 14:04 42.14910 16.92345 37053 ft 439 kts 128°
2026-04-24 14:05 42.10802 16.98411 37051 ft 440 kts 128°
2026-04-24 14:05 42.06680 17.04484 37046 ft 440 kts 128°
2026-04-24 14:06 42.02587 17.10503 37046 ft 439 kts 128°
2026-04-24 14:06 41.98449 17.16575 37044 ft 440 kts 128°
2026-04-24 14:07 41.94340 17.22590 37046 ft 439 kts 128°
2026-04-24 14:07 41.90291 17.28730 37036 ft 438 kts 125°
2026-04-24 14:08 41.86511 17.35124 37043 ft 439 kts 123°
2026-04-24 14:08 41.82778 17.41567 37041 ft 438 kts 123°
2026-04-24 14:09 41.79022 17.47977 37041 ft 439 kts 123°
2026-04-24 14:09 41.75229 17.54379 37042 ft 439 kts 124°
2026-04-24 14:10 41.71431 17.60747 37038 ft 440 kts 124°
2026-04-24 14:10 41.67605 17.67133 37034 ft 441 kts 124°
2026-04-24 14:11 41.63776 17.73507 37037 ft 441 kts 124°
2026-04-24 14:12 41.57997 17.83102 37039 ft 440 kts 124°
2026-04-24 14:12 41.54171 17.89438 37030 ft 440 kts 124°
2026-04-24 14:13 41.50319 17.95804 37031 ft 440 kts 124°
2026-04-24 14:13 41.46473 18.02149 37033 ft 441 kts 124°
2026-04-24 14:14 41.42632 18.08470 37030 ft 440 kts 124°
2026-04-24 14:14 41.36856 18.17950 37028 ft 439 kts 124°
2026-04-24 14:15 41.33014 18.24242 37028 ft 440 kts 124°
2026-04-24 14:15 41.29167 18.30526 37029 ft 440 kts 124°
2026-04-24 14:16 41.25293 18.36843 37030 ft 440 kts 124°
2026-04-24 14:17 41.19510 18.46247 37028 ft 440 kts 124°
2026-04-24 14:17 41.13674 18.55711 37027 ft 440 kts 124°
2026-04-24 14:18 41.09796 18.61981 37029 ft 441 kts 124°
2026-04-24 14:18 41.05903 18.68264 37028 ft 441 kts 125°
2026-04-24 14:19 41.01998 18.74554 37028 ft 441 kts 125°
2026-04-24 14:19 40.98119 18.80785 37024 ft 441 kts 125°
2026-04-24 14:20 40.94213 18.87047 37034 ft 441 kts 124°
2026-04-24 14:20 40.90323 18.93274 37026 ft 442 kts 125°
2026-04-24 14:21 40.86677 18.99804 37027 ft 440 kts 118°
2026-04-24 14:21 40.83393 19.06585 37025 ft 439 kts 117°
2026-04-24 14:22 40.80172 19.13387 37026 ft 439 kts 117°
2026-04-24 14:23 40.75273 19.23560 37018 ft 438 kts 118°
2026-04-24 14:23 40.71975 19.30317 37014 ft 438 kts 118°
2026-04-24 14:24 40.68686 19.37019 37004 ft 439 kts 118°
2026-04-24 14:24 40.65346 19.43801 37003 ft 440 kts 118°
2026-04-24 14:25 40.62578 19.49407 36998 ft 439 kts 118°
2026-04-24 14:25 40.58696 19.57255 37001 ft 441 kts 118°
2026-04-24 14:26 40.55352 19.64000 36998 ft 441 kts 118°
2026-04-24 14:26 40.51989 19.70766 36991 ft 440 kts 119°
2026-04-24 14:27 40.48714 19.77344 37000 ft 443 kts 119°
2026-04-24 14:27 40.45319 19.84147 36991 ft 442 kts 119°
2026-04-24 14:28 40.41958 19.90864 37008 ft 444 kts 119°
2026-04-24 14:28 40.38565 19.97630 37008 ft 443 kts 119°
2026-04-24 14:29 40.35181 20.04368 36995 ft 443 kts 119°
2026-04-24 14:29 40.31818 20.11045 37016 ft 441 kts 119°
2026-04-24 14:30 40.28998 20.16636 37009 ft 442 kts 119°
2026-04-24 14:30 40.25048 20.24453 37021 ft 444 kts 119°
2026-04-24 14:31 40.21626 20.31206 37009 ft 443 kts 119°
2026-04-24 14:31 40.18222 20.37910 37012 ft 445 kts 119°
2026-04-24 14:32 40.14813 20.44609 37011 ft 444 kts 119°
2026-04-24 14:32 40.11388 20.51325 37010 ft 444 kts 119°
2026-04-24 14:33 40.07675 20.57821 37006 ft 450 kts 130°
2026-04-24 14:33 40.05313 20.60451 37010 ft 457 kts 142°
2026-04-24 14:33 40.02535 20.62587 37029 ft 463 kts 148°
2026-04-24 14:34 39.96728 20.66243 37017 ft 465 kts 152°
2026-04-24 14:34 39.90804 20.69716 37013 ft 465 kts 152°
2026-04-24 14:35 39.84886 20.73194 37025 ft 464 kts 152°
2026-04-24 14:35 39.79051 20.76668 37014 ft 464 kts 152°
2026-04-24 14:36 39.73160 20.80207 36997 ft 465 kts 152°
2026-04-24 14:36 39.67293 20.83806 37004 ft 465 kts 149°
2026-04-24 14:37 39.61599 20.87658 37012 ft 464 kts 148°
2026-04-24 14:37 39.55885 20.91644 36997 ft 465 kts 148°
2026-04-24 14:38 39.50215 20.95577 36984 ft 463 kts 148°
2026-04-24 14:38 39.44530 20.99482 36986 ft 465 kts 148°
2026-04-24 14:39 39.38799 21.03389 36990 ft 463 kts 148°
2026-04-24 14:39 39.33100 21.07258 36983 ft 463 kts 148°
2026-04-24 14:40 39.27393 21.11124 36995 ft 464 kts 148°
2026-04-24 14:40 39.21652 21.15006 36985 ft 465 kts 149°
2026-04-24 14:41 39.15930 21.18866 36982 ft 464 kts 149°
2026-04-24 14:41 39.10202 21.22723 36991 ft 464 kts 149°
2026-04-24 14:42 39.05441 21.25923 36984 ft 463 kts 149°
2026-04-24 14:42 38.98764 21.30402 36984 ft 463 kts 149°
2026-04-24 14:43 38.93067 21.34217 36981 ft 463 kts 149°
2026-04-24 14:43 38.87361 21.38030 36986 ft 464 kts 149°
2026-04-24 14:44 38.81609 21.41867 36979 ft 463 kts 149°
2026-04-24 14:44 38.75872 21.45688 36988 ft 463 kts 149°
2026-04-24 14:45 38.70159 21.49485 36985 ft 463 kts 149°
2026-04-24 14:45 38.64463 21.53265 36980 ft 462 kts 149°
2026-04-24 14:46 38.58740 21.57059 36980 ft 463 kts 149°
2026-04-24 14:46 38.53016 21.60844 36987 ft 464 kts 149°
2026-04-24 14:47 38.48258 21.63985 36973 ft 462 kts 149°
2026-04-24 14:47 38.41595 21.68377 36978 ft 462 kts 149°
2026-04-24 14:48 38.35882 21.72134 36983 ft 461 kts 149°
2026-04-24 14:48 38.30139 21.75905 36984 ft 462 kts 150°
2026-04-24 14:49 38.24410 21.79661 36961 ft 462 kts 149°
2026-04-24 14:49 38.18679 21.83412 36954 ft 462 kts 149°
2026-04-24 14:50 38.12995 21.87126 36983 ft 462 kts 149°
2026-04-24 14:50 38.07279 21.90853 36978 ft 460 kts 150°
2026-04-24 14:51 38.01573 21.94564 36982 ft 460 kts 149°
2026-04-24 14:51 37.95898 21.98251 36979 ft 460 kts 150°
2026-04-24 14:52 37.90194 22.01951 36961 ft 461 kts 150°
2026-04-24 14:52 37.84493 22.05645 36986 ft 461 kts 150°
2026-04-24 14:53 37.78796 22.09327 36981 ft 460 kts 150°
2026-04-24 14:53 37.73099 22.13001 36976 ft 459 kts 150°
2026-04-24 14:54 37.67390 22.16679 36995 ft 460 kts 150°
2026-04-24 14:54 37.61721 22.20325 36979 ft 460 kts 150°
2026-04-24 14:55 37.56966 22.23377 36988 ft 459 kts 150°
2026-04-24 14:55 37.50341 22.27623 36996 ft 458 kts 150°
2026-04-24 14:56 37.44757 22.31481 36993 ft 456 kts 143°
2026-04-24 14:56 37.42323 22.33986 37002 ft 453 kts 132°
2026-04-24 14:56 37.40317 22.36984 36997 ft 450 kts 122°
2026-04-24 14:57 37.37390 22.43876 36983 ft 449 kts 111°
2026-04-24 14:57 37.35149 22.51205 36983 ft 448 kts 108°
2026-04-24 14:58 37.33087 22.58567 36989 ft 448 kts 108°
2026-04-24 14:58 37.31022 22.65897 36975 ft 447 kts 109°
2026-04-24 14:59 37.28895 22.73288 36990 ft 449 kts 109°
2026-04-24 14:59 37.26752 22.80633 36991 ft 448 kts 110°
2026-04-24 15:00 37.24604 22.87939 36995 ft 449 kts 110°
2026-04-24 15:00 37.22422 22.95324 37165 ft 449 kts 110°
2026-04-24 15:00 37.21336 22.98993 37004 ft 450 kts 110°
2026-04-24 15:01 37.20255 23.02641 36994 ft 447 kts 110°
2026-04-24 15:01 37.18108 23.09871 37053 ft 448 kts 110°
2026-04-24 15:02 37.15928 23.17197 36989 ft 448 kts 110°
2026-04-24 15:02 37.13747 23.24503 36953 ft 446 kts 110°
2026-04-24 15:03 37.11926 23.30588 36984 ft 452 kts 110°
2026-04-24 15:03 37.09355 23.39143 36987 ft 450 kts 110°
2026-04-24 15:04 37.07154 23.46444 36987 ft 449 kts 110°
2026-04-24 15:04 37.04948 23.53740 36985 ft 449 kts 111°
2026-04-24 15:05 37.02725 23.61070 36993 ft 451 kts 111°
2026-04-24 15:05 37.00490 23.68417 36986 ft 455 kts 112°
2026-04-24 15:06 36.98250 23.75776 36992 ft 455 kts 112°
2026-04-24 15:06 36.95984 23.83200 36989 ft 457 kts 112°
2026-04-24 15:07 36.93705 23.90645 36985 ft 458 kts 112°
2026-04-24 15:07 36.91418 23.98093 36994 ft 460 kts 112°
2026-04-24 15:08 36.89135 24.05516 36739 ft 456 kts 113°
2026-04-24 15:08 36.88008 24.09183 36347 ft 453 kts 113°
2026-04-24 15:08 36.86867 24.12889 35799 ft 452 kts 113°
2026-04-24 15:08 36.85739 24.16543 35219 ft 455 kts 114°
2026-04-24 15:09 36.84606 24.20207 34496 ft 460 kts 113°
2026-04-24 15:09 36.83459 24.23910 33732 ft 465 kts 114°
2026-04-24 15:09 36.82281 24.27707 32919 ft 470 kts 115°
2026-04-24 15:09 36.81108 24.31483 32093 ft 474 kts 115°
2026-04-24 15:10 36.79913 24.35327 31238 ft 479 kts 116°
2026-04-24 15:10 36.78721 24.39155 30336 ft 483 kts 117°
2026-04-24 15:10 36.77520 24.43014 29290 ft 477 kts 117°
2026-04-24 15:10 36.76339 24.46852 28353 ft 475 kts 116°
2026-04-24 15:11 36.75304 24.50789 27322 ft 480 kts 110°
2026-04-24 15:11 36.74537 24.54779 26328 ft 479 kts 105°
2026-04-24 15:11 36.73963 24.58829 25291 ft 479 kts 102°
2026-04-24 15:11 36.73493 24.62959 24197 ft 480 kts 100°
2026-04-24 15:12 36.73086 24.67075 23331 ft 479 kts 100°
2026-04-24 15:12 36.72343 24.75214 21891 ft 471 kts 99°
2026-04-24 15:12 36.71972 24.79214 21159 ft 460 kts 99°
2026-04-24 15:13 36.71602 24.83102 20414 ft 451 kts 99°
2026-04-24 15:13 36.71230 24.86951 19660 ft 444 kts 99°
2026-04-24 15:13 36.70859 24.90737 18910 ft 437 kts 99°
2026-04-24 15:13 36.70488 24.94463 18156 ft 432 kts 98°
2026-04-24 15:14 36.70121 24.98107 17396 ft 427 kts 98°
2026-04-24 15:14 36.69748 25.01746 16628 ft 423 kts 98°
2026-04-24 15:14 36.69377 25.05340 15872 ft 418 kts 98°
2026-04-24 15:14 36.69007 25.08878 15162 ft 414 kts 97°
2026-04-24 15:15 36.68618 25.12437 14425 ft 412 kts 99°
2026-04-24 15:15 36.67948 25.15902 13676 ft 410 kts 109°
2026-04-24 15:15 36.66681 25.19015 12958 ft 408 kts 125°
2026-04-24 15:15 36.64800 25.21609 12245 ft 405 kts 137°
2026-04-24 15:16 36.62685 25.23930 11573 ft 400 kts 139°
2026-04-24 15:16 36.60579 25.26121 11153 ft 389 kts 139°
2026-04-24 15:16 36.58536 25.28218 10946 ft 374 kts 139°
2026-04-24 15:16 36.56579 25.30232 10780 ft 358 kts 139°
2026-04-24 15:17 36.54705 25.32176 10612 ft 344 kts 139°
2026-04-24 15:17 36.52909 25.34055 10429 ft 329 kts 138°
2026-04-24 15:17 36.51220 25.35834 10297 ft 311 kts 138°
2026-04-24 15:17 36.49610 25.37538 10131 ft 294 kts 137°
2026-04-24 15:18 36.48084 25.39156 9852 ft 284 kts 137°
2026-04-24 15:18 36.46614 25.40717 9474 ft 278 kts 137°
2026-04-24 15:18 36.45145 25.42275 9120 ft 272 kts 137°
2026-04-24 15:18 36.43725 25.43781 8780 ft 266 kts 137°
2026-04-24 15:19 36.42330 25.45260 8249 ft 268 kts 137°
2026-04-24 15:19 36.40916 25.46759 7762 ft 268 kts 137°
2026-04-24 15:19 36.39556 25.48294 7292 ft 265 kts 130°
2026-04-24 15:19 36.38436 25.50105 6817 ft 263 kts 121°
2026-04-24 15:20 36.37495 25.52020 6369 ft 261 kts 118°
2026-04-24 15:20 36.36576 25.53965 5894 ft 259 kts 118°
2026-04-24 15:20 36.35664 25.55845 5413 ft 257 kts 119°
2026-04-24 15:20 36.34728 25.57720 4917 ft 255 kts 119°
2026-04-24 15:21 36.33791 25.59573 4422 ft 254 kts 119°
2026-04-24 15:21 36.32859 25.61410 3928 ft 252 kts 119°
2026-04-24 15:21 36.31907 25.63234 3473 ft 252 kts 125°
2026-04-24 15:21 36.30571 25.64631 3014 ft 254 kts 154°
2026-04-24 15:22 36.28880 25.65003 2974 ft 239 kts 187°
2026-04-24 15:22 36.27394 25.64303 2978 ft 223 kts 220°
2026-04-24 15:22 36.26526 25.62848 2977 ft 203 kts 256°
2026-04-24 15:23 36.26849 25.59628 2979 ft 191 kts 290°
2026-04-24 15:23 36.27843 25.56615 2893 ft 187 kts 311°
2026-04-24 15:23 36.28780 25.55551 2658 ft 180 kts 328°
2026-04-24 15:24 36.31640 25.53169 1807 ft 151 kts 329°
2026-04-24 15:25 36.33030 25.51993 1280 ft 144 kts 329°
2026-04-24 15:25 36.34934 25.50391 662 ft 140 kts 330°
2026-04-24 15:26 36.37635 25.49002 350 ft 139 kts 342°
2026-04-24 15:27 36.40118 25.47825 103 ft 69 kts 339°
2026-04-24 15:27 36.40463 25.47593 113 ft 6 kts 251°
2026-04-24 15:28 36.40427 25.47477 115 ft 0 kts 248°
2026-04-24 15:29 36.40419 25.47454 116 ft 0 kts 249°
2026-04-24 15:30 36.40355 25.47419 116 ft 3 kts 242°
2026-04-24 15:31 36.40345 25.47383 117 ft 0 kts 250°